Regional Weather Roundup
Issued by NWS

Home | Current Version | Previous Version | Text Only | Print | Product List | Glossary On
Versions: 1 2 3 4 5 6 7 8 9 10 11 12 13 14 15 16 17 18 19 20 21 22 23 24 25 26 27 28 29 30 31 32 33 34 35 36 37 38 39 40 41 42 43 44 45 46 47 48 49 50
000
ASUS43 KTOP 221408
RWRKS

WEATHER ROUNDUP FOR KANSAS
NATIONAL WEATHER SERVICE GOODLAND KS
900 AM CDT FRI AUG 22 2014

NOTE:  "FAIR" INDICATES FEW OR NO CLOUDS BELOW 12,000 FEET WITH NO
SIGNIFICANT WEATHER AND/OR OBSTRUCTIONS TO VISIBILITY.

KSZ001>006-013>018-027>032-041>047-221500-
NORTHWEST KANSAS

CITY           SKY/WX    TMP DP  RH WIND       PRES   REMARKS
GOODLAND       SUNNY     73  56  54 N20G26    30.03F
HAYS           CLOUDY    73  64  73 N18       29.91S THUNDER
HILL CITY      PTSUNNY   77  68  73 N9        29.93F
RUSSELL        PTSUNNY   79  66  64 W6        29.90R
$$

KSZ061>065-074>080-084>089-221500-
SOUTHWEST KANSAS

CITY           SKY/WX    TMP DP  RH WIND       PRES   REMARKS
DODGE CITY     MOSUNNY   81  64  56 S14       29.96R
ELKHART          N/A     72  55  55 SW7         N/A
GARDEN CITY    MOSUNNY   76  64  66 S12       29.96R
GREAT BEND     PTSUNNY   82  66  57 S15       29.91S
LIBERAL        MOSUNNY   81  63  54 S17       30.00S
PRATT          SUNNY     81  63  54 S13       29.94S
$$

KSZ066>073-081>083-090>101-221500-
SOUTHEAST KANSAS

CITY           SKY/WX    TMP DP  RH WIND       PRES   REMARKS
CHANUTE        SUNNY     83  68  60 S17       29.96S
COFFEYVILLE    MOSUNNY   82  70  66 S10       29.97R
HUTCHINSON     SUNNY     83  65  54 S14       29.92R
MEDICINE LODGE   N/A     82  65  56 S8        29.92S
NEWTON         SUNNY     82  63  51 S17       29.96F
PARSONS        SUNNY     82  69  64 S9G20     29.98R
WICHITA INTL   MOSUNNY   82  65  56 S14       29.93R
WICHITA JABRA  SUNNY     81  65  58 S16G24    29.94R
WICHITA MCCONL SUNNY     81  66  60 S14G22    29.94S
WINFIELD       SUNNY     83  66  56 S16G22    29.96R HAZE
$$

KSZ007>012-019>026-033>040-048>060-102>105-221500-
NORTHEAST KANSAS

CITY           SKY/WX    TMP DP  RH WIND       PRES   REMARKS
CONCORDIA      TSTM      75  71  87 S3        29.90S
EMPORIA        SUNNY     81  69  67 S15       29.92S
LAWRENCE       MOSUNNY   86  71  60 VRB5      29.95R
MANHATTAN      PTSUNNY   79  71  76 N6        29.91R
MARYSVILLE     PTSUNNY   77  72  83 SE7       29.93R
OLATHE IND     MOSUNNY   82  70  66 S10       29.96R
OLATHE EXE     MOSUNNY   80  71  74 SW5       29.96R
SALINA         MOSUNNY   84  68  58 S6        29.90R
TOPEKA BILLARD MOSUNNY   85  71  63 CALM      29.95R
TOPEKA FORBES  MOSUNNY   83  69  62 SW8       29.95R
$$



USA.gov is the U.S. government's official web portal to all federal, state and local government web resources and services.